Probability
3 3 3 3 2 1 0 0 0 0 0 0 0 0 0 0 0 0 0 0 0 0 0 0 0 0 0 0 0 0 0 0 0 0 0 0 0 0 0 0 0 0 0
3 3 3 2 1 0 0 0 0 0 0 0 0 0 0 0 0 0 0 0 0 0 0 0 0 0 0 0 0 0 0 0 0 0 0 0 0 0 0 0 0 0 0
3 2 1 1 0 0 0 0 0 0 0 0 0 0 0 0 0 0 0 0 0 0 0 0 0 0 0 0 0 0 0 0 0 0 0 0 0 0 0 0 0 0 0
2 1 0 0 0 0 0 0 0 0 0 0 0 0 0 0 0 0 0 0 0 0 0 0 0 0 0 0 0 0 0 0 0 0 0 0 0 0 0 0 0 0 0
1 0 0 0 0 0 0 0 0 0 0 0 0 0 0 0 0 0 0 0 0 0 0 0 0 0 0 0 0 0 0 0 0 0 0 0 0 0 0 0 0 0 0
1 0 0 0 0 0 0 0 0 0 0 0 0 0 0 0 0 0 0 0 0 0 0 0 0 0 0 0 0 0 0 0 0 0 0 0 0 0 0 0 0 0 0
1 0 0 0 0 0 0 0 0 0 0 0 0 0 0 0 0 0 0 0 0 0 0 0 0 0 0 0 0 0 0 0 0 0 0 0 0 0 0 0 0 0 0
1 0 0 0 0 0 0 0 0 0 0 0 0 0 0 0 0 0 0 0 0 0 0 0 0 0 0 0 0 0 0 0 0 0 0 0 0 0 0 0 0 0 0
0 0 0 0 0 0 0 0 0 0 0 0 0 0 0 0 0 0 0 0 0 0 0 0 0 0 0 0 0 0 0 0 0 0 0 0 0 0 0 0 0 0 0
0 0 0 0 0 0 0 0 0 0 0 0 0 0 0 0 0 0 0 0 0 0 0 0 0 0 0 0 0 0 0 0 0 0 0 0 0 0 0 0 0 0 0
0 0 0 0 0 0 0 0 0 0 0 0 0 0 0 0 0 0 0 0 0 0 0 0 0 0 0 0 0 0 0 0 0 0 0 0 0 0 0 0 0 0 0
0 0 0 0 0 0 0 0 0 0 0 0 0 0 0 0 0 0 0 0 0 0 0 0 0 0 0 0 0 0 0 0 0 0 0 0 0 0 0 0 0 0 0
0 0 0 0 0 0 0 0 0 0 0 0 0 0 0 0 0 0 0 0 0 0 0 0 0 0 0 0 0 0 0 0 0 0 0 0 0 0 0 0 0 0 0
0 0 0 0 0 0 0 0 0 0 0 0 0 0 0 0 0 0 0 0 0 0 0 0 0 0 0 0 0 0 0 0 0 0 0 0 0 0 0 0 0 0 0
0 0 0 0 0 0 0 0 0 0 0 0 0 0 0 0 0 0 0 0 0 0 0 0 0 0 0 0 0 0 0 0 0 0 0 0 0 0 0 0 0 0 0
0 0 0 0 0 0 0 0 0 0 0 0 0 0 0 0 0 0 0 0 0 0 0 0 0 0 0 0 0 0 0 0 0 0 0 0 0 0 0 0 0 0 0
0 0 0 0 0 0 0 0 0 0 0 0 0 0 0 0 0 0 0 0 0 0 0 0 0 0 0 0 0 0 0 0 0 0 0 0 0 0 0 0 0 0 0
0 0 0 0 0 0 0 0 0 0 0 0 0 0 0 0 0 0 0 0 0 0 0 0 0 0 0 0 0 0 0 0 0 0 0 0 0 0 0 0 0 0 0
0 0 0 0 0 0 0 0 0 0 0 0 0 0 0 0 0 0 0 0 0 0 0 0 0 0 0 0 0 0 0 0 0 0 0 0 0 0 0 0 0 0 0
0 0 0 0 0 0 0 0 0 0 0 0 0 0 0 0 0 0 0 0 0 0 0 0 0 0 0 0 0 0 0 0 0 0 0 0 0 0 0 0 0 0 0
0 0 0 0 0 0 0 0 0 0 0 0 0 0 0 0 0 0 0 0 0 0 0 0 0 0 0 0 0 0 0 0 0 0 0 0 0 0 0 0 0 0 0
0 0 0 0 0 0 0 0 0 0 0 0 0 0 0 0 0 0 0 0 0 0 0 0 0 0 0 0 0 0 0 0 0 0 0 0 0 0 0 0 0 0 0
0 0 0 0 0 0 0 0 0 0 0 0 0 0 0 0 0 0 0 0 0 0 0 0 0 0 0 0 0 0 0 0 0 0 0 0 0 0 0 0 0 0 0
0 0 0 0 0 0 0 0 0 0 0 0 0 0 0 0 0 0 0 0 0 0 0 0 0 0 0 0 0 0 0 0 0 0 0 0 0 0 0 0 0 0 0
0 0 0 0 0 0 0 0 0 0 0 0 0 0 0 0 0 0 0 0 0 0 0 0 0 0 0 0 0 0 0 0 0 0 0 0 0 0 0 0 0 0 0
0 0 0 0 0 0 0 0 0 0 0 0 0 0 0 0 0 0 0 0 0 0 0 0 0 0 0 0 0 0 0 0 0 0 0 0 0 0 0 0 0 0 0
Wind_Speed
4 4 4 3 3 3 2 1 1 1 1 2 2 2 3 3 3 2 3 3 3 3 2 2 2 1 1 1 0 0 1 1 2 2 1 2 2 2 2 2 2 2 1
4 5 4 3 3 2 1 1 1 1 1 1 2 2 3 3 3 3 3 3 3 3 3 2 2 2 1 1 0 1 1 1 2 2 2 2 2 2 2 2 2 1 1
4 5 4 3 2 1 0 0 1 1 1 2 2 2 2 3 3 3 2 3 3 3 3 2 2 2 2 1 1 1 1 1 1 2 2 1 2 1 1 2 2 1 1
4 4 3 2 2 1 0 0 1 1 1 2 2 2 2 2 2 2 2 2 3 3 3 2 2 2 2 2 1 1 1 0 0 1 1 1 1 2 1 1 1 1 1
4 3 2 2 2 1 0 1 1 1 1 1 1 2 2 2 2 2 2 2 3 3 4 3 3 3 2 2 1 1 1 1 1 1 1 1 1 1 1 1 1 1 1
4 3 2 2 2 1 1 1 1 2 2 2 2 2 3 3 3 3 2 2 2 3 3 4 4 3 4 3 3 2 2 2 2 1 1 2 3 2 1 1 1 1 1
3 3 3 3 2 1 1 1 1 1 1 2 2 2 3 4 4 4 3 1 2 2 3 3 3 3 4 3 3 3 2 2 4 3 3 3 3 3 2 2 2 2 2
3 3 3 3 2 1 1 0 1 1 1 1 2 2 3 4 5 4 4 2 2 3 3 3 3 4 4 3 2 3 3 2 3 3 4 4 4 3 3 2 1 1 2
3 3 3 3 3 2 1 1 1 0 1 1 2 2 2 4 5 4 3 1 2 3 3 3 3 3 5 4 2 2 3 3 2 2 4 5 5 5 4 2 2 1 1
3 3 3 3 3 2 2 1 1 1 1 2 2 2 2 3 5 4 2 1 2 3 3 4 4 4 5 4 1 1 3 3 3 3 3 2 2 2 4 4 3 2 2
3 3 2 2 2 2 1 1 1 1 1 2 2 3 2 3 4 4 3 0 2 3 3 3 4 6 5 4 2 2 4 3 2 2 2 3 2 1 1 2 3 3 3
3 2 2 1 1 1 1 1 0 0 1 2 2 4 3 3 3 4 4 2 2 2 3 3 4 7 6 5 3 3 3 2 1 1 2 2 2 2 2 1 3 4 4
3 2 1 1 0 1 1 1 1 0 1 2 2 3 4 3 3 4 4 4 3 3 4 6 6 7 5 4 4 4 2 1 1 1 2 2 2 2 2 2 1 2 3
3 2 1 1 0 1 0 1 1 1 2 2 2 3 4 4 3 3 3 3 3 3 3 5 6 5 3 4 4 3 2 2 2 2 2 2 2 2 2 1 1 1 1
3 2 1 1 1 1 1 2 3 3 4 4 3 3 3 4 5 6 4 3 3 3 3 2 2 3 3 3 2 2 2 1 2 2 2 3 2 2 2 2 1 1 1
2 2 1 1 1 1 2 3 3 5 6 7 8 7 6 8 9 9 7 6 5 4 2 2 3 3 3 3 3 3 2 2 3 3 3 3 3 3 3 2 2 2 3
3 3 2 2 2 2 2 2 4 5 5 6 7 8 9 9 9 9 8 6 5 2 2 3 4 4 4 4 4 4 4 4 3 3 4 4 4 4 3 4 3 3 4
3 3 3 2 2 2 3 3 3 3 5 5 5 6 8 9 9 8 6 3 3 2 3 4 5 5 4 4 4 4 5 4 4 4 4 4 4 4 4 4 4 5 4
3 2 2 2 2 3 3 3 3 4 4 5 5 6 6 6 6 6 3 2 4 5 5 5 5 5 5 5 5 5 5 5 5 4 4 5 5 4 5 5 5 6 5
2 4 3 2 3 3 3 3 3 4 4 5 5 5 4 3 3 4 3 4 5 6 6 6 6 6 6 6 5 5 5 5 5 5 5 5 5 5 6 7 6 6 5
2 2 3 3 3 3 3 3 4 4 5 5 6 6 5 4 5 6 5 5 5 6 6 6 6 6 6 6 6 6 7 6 6 6 6 6 5 5 6 6 6 6 6
2 2 2 3 3 3 3 4 4 5 6 7 6 6 7 5 5 6 6 6 6 6 6 6 7 6 6 6 6 6 7 7 7 7 6 6 6 6 6 6 6 6 6
2 2 3 3 3 4 4 4 4 5 6 6 6 6 6 5 6 6 7 7 6 6 6 6 7 7 7 6 6 7 7 8 7 7 7 7 6 6 6 7 8 8 8
2 3 3 3 3 3 4 5 5 5 6 6 6 6 6 6 7 7 7 7 7 7 7 6 7 9 11 8 6 6 7 8 8 7 9 8 8 7 7 7 8 9 8
3 3 3 3 4 4 4 5 5 6 6 6 6 6 6 6 7 7 7 6 7 8 9 8 6 8 11 12 10 9 8 8 8 6 6 6 8 8 8 9 8 8 9
3 3 3 3 3 4 4 5 5 6 6 6 6 6 6 7 7 7 6 6 7 7 7 7 8 10 11 9 10 10 8 8 7 6 5 6 7 7 7 7 9 9 10
Wind_Direction
132 117 107 106 100 98 97 86 60 24 16 13 3 3 2 359 1 6 353 356 1 353 350 352 340 320 343 344 16 203 225 215 239 275 274 286 289 300 320 316 306 293 286
132 115 110 101 94 91 82 58 47 26 13 10 1 5 3 1 1 360 350 356 358 347 339 347 338 341 351 338 328 285 253 237 225 263 292 302 291 283 294 299 307 300 279
128 122 118 112 101 88 32 5 33 33 14 7 8 4 360 354 355 352 352 354 352 337 333 338 328 346 336 322 307 287 275 266 230 227 267 282 286 290 304 306 313 316 291
131 131 133 143 145 155 249 28 33 24 13 352 346 341 336 337 345 352 3 358 352 345 345 339 330 326 304 310 309 283 265 298 270 238 262 282 284 284 270 296 321 334 319
135 139 154 152 136 123 58 17 19 17 4 342 343 338 331 330 338 349 350 356 355 352 352 348 340 333 321 316 295 267 220 211 255 264 271 281 280 282 280 269 284 316 303
141 154 157 139 126 119 90 25 18 8 356 353 342 337 341 335 341 348 353 357 350 348 343 342 337 339 345 342 328 291 236 214 223 236 257 260 264 256 251 244 231 293 293
153 159 155 144 138 146 128 68 5 335 347 337 328 341 336 327 341 347 352 352 331 328 329 333 337 341 341 329 333 331 316 261 227 220 238 249 251 240 225 235 220 224 251
154 161 162 153 157 160 138 153 287 284 313 307 319 328 325 323 339 342 344 357 336 327 323 317 320 325 330 327 325 331 321 303 259 232 237 250 255 250 225 223 213 243 273
154 168 175 167 161 166 179 241 262 288 314 297 296 314 317 318 333 337 343 347 334 326 325 324 323 320 321 324 329 323 322 321 310 264 259 263 262 253 215 180 183 197 283
180 181 174 168 165 184 212 232 247 233 274 299 315 311 299 309 322 331 336 322 323 316 321 324 325 325 326 332 307 297 310 310 328 346 346 333 292 257 205 198 199 194 222
171 159 160 166 173 190 207 233 236 266 319 326 320 316 315 305 310 318 325 270 276 298 309 313 316 326 326 323 290 251 256 275 305 325 325 321 321 300 216 202 204 202 209
146 150 166 167 176 162 161 251 265 144 336 326 330 326 319 308 298 303 305 282 248 260 283 293 299 312 314 314 297 278 276 279 292 319 322 315 314 308 294 256 222 220 229
138 155 182 159 149 167 170 231 294 295 276 298 309 308 309 311 304 300 300 296 280 251 272 285 295 303 307 308 302 300 292 268 268 285 289 284 276 278 291 298 275 234 244
155 178 175 144 328 342 318 225 236 253 261 275 283 287 296 302 301 303 304 304 305 285 285 296 303 305 300 291 302 303 275 243 227 250 269 273 283 290 287 289 297 311 303
164 178 178 183 222 290 294 258 245 242 228 232 248 248 262 283 280 276 273 285 291 298 304 297 311 320 323 317 308 301 287 258 241 243 252 269 279 280 275 259 244 247 264
172 192 207 220 242 258 286 308 281 253 262 248 239 240 251 254 271 281 277 276 284 295 297 292 293 292 288 291 298 302 287 262 253 249 250 254 265 271 275 263 235 239 257
189 209 219 231 244 258 266 286 307 313 298 275 263 256 253 264 273 278 280 283 288 263 246 269 274 278 278 279 278 276 277 277 266 256 256 258 257 260 262 266 261 256 260
207 223 224 233 243 253 259 262 267 286 306 309 299 283 277 272 274 277 282 294 290 245 244 262 270 274 273 274 274 271 272 277 268 260 259 258 255 255 259 262 261 259 262
212 227 228 234 242 250 258 264 268 273 279 288 299 302 298 290 284 278 251 229 262 271 263 261 262 266 266 264 263 263 264 268 268 263 261 259 256 250 254 257 258 256 254
222 236 234 234 246 252 256 263 271 275 280 284 286 287 299 305 296 291 254 241 253 263 266 265 264 259 259 259 259 257 259 261 262 258 258 258 254 248 253 257 259 258 256
227 246 246 244 249 255 261 266 269 273 276 280 280 276 269 272 278 280 276 263 257 260 262 263 264 262 257 255 256 256 255 257 256 255 256 257 255 252 251 254 255 255 258
221 237 244 252 261 263 267 268 270 272 275 279 285 289 277 264 269 275 275 271 265 258 257 258 264 262 257 254 252 252 256 259 257 253 252 253 251 252 254 256 257 257 257
219 238 252 257 259 267 273 272 269 271 274 275 278 284 283 274 271 271 273 274 272 270 266 259 262 267 263 255 249 246 251 257 258 256 253 256 256 255 254 256 258 260 261
217 234 249 262 265 267 274 277 275 276 278 280 279 277 277 276 276 277 276 276 274 272 268 261 259 263 266 265 261 254 252 255 260 259 255 257 260 261 259 258 258 259 262
222 237 249 258 266 271 277 281 281 282 284 286 285 283 281 280 279 280 278 276 276 275 275 272 266 266 268 269 269 268 264 256 255 259 259 255 258 260 261 262 262 263 261
232 243 253 259 264 269 274 280 284 286 286 288 289 286 285 285 284 284 285 284 284 282 281 279 276 274 274 273 273 271 268 264 260 253 249 255 258 261 262 262 265 264 265